Temperature
12 13 13 13 14 14 14 14 14 14 14 14 14 13 13 13 12 13 13 13 13 13 13 13 13 14 14 14 14 14 14 14 13 12 12 12 12 12 12 12 12 13 13
11 11 11 12 12 12 13 13 13 13 14 14 13 13 13 12 12 12 13 13 13 13 13 13 13 13 13 13 13 13 13 13 13 12 12 12 12 12 12 12 12 12 12
10 10 10 10 10 11 11 12 12 13 13 13 13 13 12 12 12 12 12 12 12 13 13 13 13 13 13 13 13 13 13 13 13 12 12 11 11 11 11 11 11 11 11
9 9 9 9 9 10 10 11 11 12 12 12 12 12 12 12 12 12 12 12 12 12 12 12 12 12 12 12 12 12 12 12 12 12 11 11 11 11 11 11 11 11 11
8 8 8 9 9 9 9 10 10 11 11 12 12 12 12 12 12 12 12 12 12 12 12 12 12 12 12 12 12 12 12 12 12 12 12 12 12 12 12 12 12 11 11
8 8 8 8 8 8 9 9 9 10 10 11 11 12 12 12 12 12 12 12 11 12 11 11 12 12 12 11 11 11 11 11 12 12 12 12 11 12 12 12 12 12 11
8 8 8 8 8 8 9 9 9 9 10 10 11 11 11 12 12 12 12 11 11 11 11 11 11 11 11 11 11 11 11 11 11 12 12 11 11 11 11 12 12 12 12
8 8 8 8 9 9 9 9 9 9 9 10 10 11 11 11 12 12 12 11 11 11 11 11 11 11 11 11 11 11 11 11 11 11 11 11 11 11 11 11 11 11 10
8 8 8 8 8 9 9 9 8 8 8 9 9 10 10 11 11 11 11 11 11 11 11 11 11 11 11 11 11 11 11 11 11 11 11 11 11 10 10 11 11 12 11
8 8 8 8 8 8 8 8 8 8 8 8 9 9 10 10 11 11 11 11 11 11 10 11 11 11 11 11 11 11 10 10 10 10 10 10 10 10 10 10 11 12 12
7 7 7 7 7 7 7 8 8 8 8 8 8 9 9 10 11 11 11 11 11 11 11 11 11 11 11 11 11 10 11 10 10 10 10 10 9 9 9 9 10 11 11
7 7 7 7 7 8 8 8 8 8 8 8 8 8 9 9 10 11 11 11 11 11 11 11 11 11 11 10 10 11 11 10 10 10 10 10 10 9 9 9 9 9 9
6 6 6 6 6 7 7 8 8 8 8 8 7 8 8 9 10 10 10 10 11 11 11 11 11 11 10 10 10 10 10 10 11 11 11 10 9 9 8 8 8 8 7
5 5 5 6 6 6 7 7 8 8 8 8 7 7 8 8 9 10 10 10 10 10 10 10 10 10 10 10 10 10 10 10 11 10 10 9 9 8 9 9 9 9 9
5 5 5 5 6 6 7 7 8 8 8 7 7 7 7 8 9 9 10 10 10 10 10 10 9 9 9 9 9 10 10 9 10 10 9 9 9 9 9 9 9 10 10
4 4 5 5 5 6 7 7 7 7 7 7 7 7 7 7 8 9 10 10 10 10 10 10 10 10 10 10 10 10 10 10 10 10 9 9 10 9 9 9 9 10 10
4 4 4 4 5 6 6 7 7 7 7 7 7 7 7 7 8 9 9 10 10 10 10 10 11 11 11 10 10 10 10 10 9 9 10 10 10 9 9 9 9 10 10
4 4 4 4 5 5 6 7 7 7 7 6 6 7 7 7 8 8 9 9 9 10 11 11 11 11 11 11 11 10 10 9 9 9 9 9 10 10 9 10 10 9 9
4 4 4 4 4 5 6 7 7 7 7 7 6 6 6 7 7 8 9 9 9 9 11 11 11 11 11 11 11 10 10 9 9 9 9 9 9 10 10 10 9 8 9
4 4 4 4 5 5 6 7 7 7 7 7 6 6 6 7 7 8 8 9 10 10 11 11 11 11 11 11 10 10 10 9 9 9 9 9 9 10 9 9 10 9 9
4 4 4 4 5 6 6 7 7 7 7 6 6 6 7 7 7 8 8 9 10 11 11 11 11 11 11 11 11 10 10 10 9 10 9 9 9 10 10 10 9 9 9
4 4 5 5 6 6 7 7 7 7 6 6 6 6 7 7 8 8 8 9 10 11 11 11 11 11 11 11 11 11 10 10 10 10 10 9 9 9 10 10 10 9 9
4 5 5 6 6 6 6 6 6 6 6 6 6 6 7 8 8 9 9 10 10 11 11 11 11 11 11 11 11 11 11 10 10 10 10 10 10 10 10 10 9 9 9
5 5 6 6 6 6 6 6 6 6 6 7 7 7 7 8 9 9 10 10 11 11 11 11 11 11 11 11 11 11 11 11 10 10 10 10 10 10 10 10 10 10 10
5 6 6 6 6 6 6 6 6 7 7 7 7 8 8 9 9 10 10 10 11 11 11 11 11 11 10 10 11 11 11 10 10 10 10 10 10 10 10 10 10 10 10
6 6 6 6 6 6 6 7 7 7 8 8 8 8 9 9 10 10 10 10 10 10 10 10 11 11 10 10 10 10 10 10 10 10 10 10 10 10 10 10 10 10 10
Wind_Speed
13 13 13 12 11 11 11 11 12 11 11 11 11 11 12 12 11 11 12 12 12 11 10 9 9 9 7 6 6 6 6 5 6 5 4 4 5 6 5 8 10 10 12
12 13 13 13 13 13 13 13 13 13 13 13 12 12 12 12 11 11 11 11 10 9 8 6 6 5 4 3 2 3 3 5 9 10 5 4 5 6 7 8 9 11 12
13 13 13 14 14 14 15 15 14 14 14 14 13 13 12 11 11 10 9 9 7 6 4 4 3 2 1 1 2 4 5 6 8 9 7 5 5 7 9 10 11 9 12
12 12 11 12 13 14 15 15 15 15 15 15 14 13 12 11 10 9 7 6 5 3 1 1 0 2 3 4 5 6 7 8 9 9 9 8 8 9 9 10 10 8 9
12 12 12 12 12 13 14 14 15 15 16 15 15 15 13 11 10 8 6 5 4 2 2 2 4 6 7 6 6 7 7 8 8 8 9 9 9 9 8 8 10 9 8
15 15 14 14 13 14 14 15 15 15 15 15 16 16 14 11 5 4 7 6 4 4 4 5 7 8 10 11 10 8 5 6 8 8 8 9 8 8 7 7 9 8 7
18 18 17 16 16 15 15 14 14 14 14 14 15 16 15 11 11 9 7 5 5 5 6 6 7 9 10 11 11 10 9 8 5 7 10 10 9 8 7 7 5 6 7
19 19 18 17 18 16 15 15 14 13 12 12 13 15 15 13 15 12 9 8 7 7 7 8 9 10 10 11 11 10 9 8 7 9 10 9 9 7 6 8 9 9 7
21 20 19 19 19 18 17 16 14 13 12 12 11 13 15 13 16 15 13 10 9 9 9 9 10 11 9 9 12 12 11 9 13 16 14 12 12 9 3 6 7 7 8
21 20 19 18 19 19 18 17 15 13 13 12 10 12 14 14 17 18 16 11 11 10 9 8 8 10 10 7 11 12 13 12 12 12 11 10 9 7 3 2 3 5 7
21 20 19 19 18 19 18 16 15 14 13 12 10 10 12 14 18 19 17 11 12 11 11 10 8 11 9 5 7 11 13 13 12 11 10 9 8 7 6 6 6 4 4
20 20 19 19 18 17 16 15 15 13 13 11 8 7 8 11 16 18 17 11 9 11 10 10 10 12 10 6 6 12 13 11 10 9 8 8 8 8 8 9 9 10 9
21 20 19 19 17 17 16 16 14 13 11 9 7 6 6 8 12 17 15 10 7 8 9 14 15 16 14 9 13 13 11 9 8 8 8 8 8 9 8 8 9 8 8
20 19 18 17 17 16 14 14 13 11 10 8 5 5 6 8 11 15 14 12 12 12 13 15 15 11 10 13 12 10 8 7 7 7 8 8 9 8 7 7 7 7 7
19 18 16 16 16 14 14 12 12 10 7 6 5 4 5 8 11 17 17 16 15 15 16 13 13 12 12 11 10 9 8 8 7 8 9 9 8 7 7 6 4 5 6
17 16 14 13 13 12 12 12 13 11 8 9 8 6 5 5 7 15 17 17 18 20 16 14 13 12 12 11 11 10 9 9 9 9 8 8 8 8 7 6 6 5 6
16 15 12 11 11 12 11 11 9 9 11 11 11 11 9 8 11 15 18 20 20 19 14 13 12 12 11 11 10 10 10 9 8 9 8 8 8 8 7 7 6 5 5
15 13 12 11 11 11 11 10 9 8 8 7 8 11 12 13 15 17 20 18 14 14 12 13 12 12 11 11 10 10 10 10 9 8 8 8 8 8 7 7 6 5 5
10 9 9 10 10 10 11 10 9 8 6 5 4 6 10 14 16 19 20 15 17 16 13 12 12 12 11 11 10 10 10 10 10 9 9 8 8 8 7 7 6 5 2
7 8 9 8 8 9 10 9 8 6 6 5 4 6 10 11 11 13 14 14 15 16 13 12 12 12 12 11 11 10 10 10 10 9 9 8 8 7 8 7 7 7 5
4 6 10 9 8 9 8 7 6 5 5 4 5 9 16 15 15 16 16 14 14 15 13 12 12 13 12 11 11 12 12 11 10 10 9 9 8 8 7 7 7 6 5
2 4 6 7 6 6 5 5 5 5 5 5 5 10 17 16 16 16 16 15 14 13 13 12 12 13 13 12 12 12 12 11 11 10 10 9 8 8 8 7 7 6 6
2 3 4 4 4 4 4 4 5 5 5 5 7 12 15 15 16 17 17 15 14 12 12 12 12 12 12 12 12 12 12 12 11 11 10 10 9 8 8 8 8 7 7
1 2 2 2 2 3 4 4 4 5 5 7 9 14 16 16 17 17 17 15 13 13 13 13 13 14 16 13 11 12 11 11 13 12 12 10 10 9 9 8 9 9 9
1 1 2 2 2 2 3 3 4 4 6 9 13 16 17 16 16 16 16 14 14 13 14 13 12 14 17 17 14 12 11 10 8 9 12 11 11 10 10 10 10 10 10
0 1 1 1 1 2 2 3 4 6 10 12 14 16 16 15 15 15 14 14 13 13 13 12 14 15 16 16 16 12 13 13 11 8 9 11 12 12 12 11 12 12 13
Wind_Direction
355 351 344 336 322 305 289 281 274 268 266 265 270 276 281 285 289 291 290 288 281 281 279 272 269 267 260 255 246 233 216 190 147 120 111 110 108 109 105 101 103 96 91
341 338 337 334 332 323 310 297 285 272 263 260 261 267 273 278 283 287 290 290 286 285 283 279 278 271 260 254 235 202 162 150 143 133 128 126 118 117 113 106 100 95 95
328 326 326 325 326 324 320 311 297 281 268 261 256 258 265 272 277 279 284 286 284 286 286 283 282 275 221 128 122 122 120 127 130 133 133 133 133 133 125 116 112 114 107
310 309 308 310 312 313 313 313 306 291 274 262 255 253 256 261 264 267 270 272 268 275 287 277 64 97 109 117 115 120 123 126 132 135 139 144 144 147 140 132 127 123 117
289 289 288 290 294 298 302 306 306 296 279 265 257 251 248 248 249 249 248 244 233 191 131 98 88 89 95 102 115 120 127 133 139 143 144 146 146 154 147 137 125 123 118
283 281 280 279 280 283 289 295 298 297 287 272 258 249 243 239 166 192 248 222 204 172 141 120 116 112 103 95 95 95 108 143 146 146 141 135 137 138 132 141 144 140 128
285 282 279 276 274 274 277 282 289 296 295 283 264 249 240 218 164 187 224 216 184 160 146 143 130 121 126 121 108 99 80 65 97 123 122 123 124 125 139 135 117 121 113
285 282 279 278 276 275 275 276 282 290 294 290 275 255 240 209 173 182 192 195 166 154 148 139 132 136 134 135 135 124 111 86 89 103 107 107 110 112 112 112 117 121 123
282 281 280 279 278 276 273 273 277 283 288 288 280 264 242 206 175 177 190 179 163 155 149 144 145 142 136 145 139 131 120 103 73 72 75 81 69 56 65 148 160 153 132
281 280 279 278 276 275 272 271 273 276 280 283 279 266 245 214 177 178 196 180 164 156 146 141 138 140 150 168 151 144 138 132 126 116 107 115 111 100 38 107 154 148 138
281 279 277 274 272 270 268 264 264 268 274 278 278 269 247 220 178 179 196 186 168 167 161 159 141 135 153 174 176 154 143 142 140 137 133 130 127 124 113 83 49 57 99
279 276 274 271 268 269 263 258 258 263 266 270 272 272 250 219 184 181 190 206 179 171 164 150 135 140 144 151 141 125 139 157 150 149 144 137 129 117 99 86 72 65 61
278 275 272 268 263 262 261 256 253 252 256 262 270 260 245 220 182 167 173 175 167 160 135 116 129 137 135 121 124 139 164 169 156 152 141 131 118 112 116 113 106 104 98
274 272 269 265 260 255 250 248 249 250 251 251 259 252 234 216 184 173 171 159 138 127 121 121 130 142 129 120 144 168 181 161 157 146 135 131 133 145 150 143 142 144 129
272 268 264 262 259 256 248 243 248 250 250 249 253 242 225 213 191 173 170 169 167 148 141 144 148 149 150 154 158 158 153 151 153 144 144 148 152 150 140 126 125 132 125
267 262 257 254 253 248 242 236 218 230 178 193 218 228 228 226 182 165 161 147 138 144 153 155 158 159 159 157 157 157 159 158 155 153 155 156 154 149 144 144 146 131 120
262 256 251 248 247 244 238 233 226 206 200 203 209 213 205 179 168 157 144 136 142 157 165 160 163 162 159 158 158 157 155 148 152 157 157 155 152 151 150 148 141 133 123
259 250 242 241 240 240 236 230 228 222 208 205 201 198 181 170 163 149 137 137 154 177 177 166 166 164 161 160 158 153 147 150 162 160 156 156 158 158 156 156 150 141 131
254 239 233 234 231 232 231 226 224 223 224 203 171 165 164 154 149 149 151 166 173 185 183 172 170 167 165 163 157 154 154 158 161 162 157 162 164 165 165 166 143 112 167
242 228 227 228 226 226 225 220 215 215 208 193 174 155 148 144 151 162 175 185 181 185 184 174 172 169 169 167 162 162 160 158 161 172 162 168 171 171 166 172 161 168 181
230 207 208 221 221 221 217 213 210 210 196 195 175 165 164 164 162 170 182 190 189 185 185 176 173 175 174 172 170 170 168 166 171 175 167 172 176 175 174 175 176 184 178
216 202 203 213 215 212 206 206 210 213 196 190 172 165 173 172 169 173 183 190 192 189 184 181 179 180 180 179 177 176 177 176 176 177 176 177 179 182 184 184 186 191 194
207 199 200 204 204 186 215 224 225 216 196 197 177 166 174 174 172 177 184 189 191 188 184 184 185 183 182 182 182 183 184 182 181 182 185 186 189 192 195 197 202 209 216
201 204 203 208 220 226 236 239 226 201 202 186 170 166 172 173 174 179 184 188 188 186 182 184 189 187 183 183 186 190 190 185 186 188 196 201 201 203 205 209 218 224 229
156 202 219 227 233 241 241 231 218 205 184 166 162 165 171 172 174 179 182 185 184 183 182 184 189 188 187 191 193 195 165 155 184 198 192 209 217 218 223 226 230 236 241
74 214 228 231 229 219 227 222 191 164 154 153 158 163 168 170 172 175 178 178 178 180 181 187 192 189 188 195 200 183 150 161 183 218 222 212 217 224 229 237 244 246 252
Height
1491 1489 1486 1484 1482 1480 1478 1476 1475 1474 1472 1471 1469 1467 1464 1462 1459 1456 1453 1449 1446 1443 1440 1438 1437 1436 1435 1436 1437 1438 1440 1442 1445 1448 1451 1454 1457 1459 1461 1463 1464 1466 1467
1488 1485 1483 1480 1477 1474 1472 1470 1469 1467 1466 1465 1463 1462 1460 1458 1455 1452 1449 1446 1442 1440 1437 1435 1433 1433 1432 1433 1433 1435 1437 1439 1443 1446 1450 1454 1457 1459 1461 1463 1465 1467 1468
1483 1480 1477 1475 1472 1469 1466 1464 1462 1460 1459 1458 1457 1456 1454 1453 1451 1448 1445 1442 1439 1437 1435 1433 1432 1431 1431 1431 1432 1433 1436 1439 1442 1446 1450 1454 1457 1460 1462 1464 1466 1468 1470
1476 1473 1470 1467 1465 1462 1460 1457 1455 1453 1452 1451 1451 1450 1449 1448 1446 1444 1441 1439 1437 1435 1433 1432 1431 1430 1430 1431 1432 1434 1436 1439 1443 1447 1451 1455 1458 1461 1464 1466 1468 1471 1473
1469 1466 1463 1460 1458 1455 1452 1450 1448 1446 1445 1444 1444 1443 1443 1442 1441 1440 1438 1436 1435 1433 1432 1432 1431 1431 1431 1432 1434 1436 1438 1441 1445 1448 1452 1456 1459 1462 1465 1468 1470 1472 1474
1462 1459 1456 1453 1451 1448 1446 1444 1442 1440 1437 1436 1435 1436 1437 1437 1436 1435 1434 1434 1433 1432 1432 1432 1432 1432 1433 1435 1437 1439 1442 1445 1448 1451 1454 1457 1460 1464 1466 1469 1471 1473 1475
1454 1451 1448 1446 1444 1442 1440 1438 1436 1433 1430 1428 1427 1428 1429 1430 1430 1430 1430 1431 1431 1431 1432 1432 1433 1434 1436 1438 1440 1443 1446 1449 1452 1454 1456 1459 1462 1464 1468 1470 1471 1473 1475
1446 1443 1440 1438 1436 1435 1433 1431 1429 1426 1423 1421 1419 1420 1421 1423 1424 1426 1427 1429 1430 1430 1431 1433 1434 1436 1438 1440 1443 1446 1449 1452 1455 1457 1458 1461 1463 1466 1468 1470 1471 1473 1475
1437 1434 1432 1430 1428 1426 1425 1424 1422 1420 1417 1414 1412 1411 1413 1416 1418 1421 1424 1427 1428 1430 1432 1433 1435 1438 1440 1443 1445 1448 1451 1454 1457 1459 1461 1463 1464 1467 1469 1472 1474 1475 1476
1427 1425 1423 1421 1419 1417 1416 1415 1414 1412 1410 1407 1404 1403 1405 1408 1412 1416 1420 1424 1426 1429 1431 1433 1436 1439 1442 1444 1447 1450 1453 1456 1458 1461 1463 1465 1467 1468 1470 1472 1474 1475 1476
1417 1415 1413 1411 1410 1408 1407 1406 1405 1404 1403 1401 1397 1395 1397 1401 1405 1410 1416 1421 1424 1427 1431 1434 1436 1439 1442 1445 1449 1452 1454 1457 1460 1463 1465 1467 1468 1470 1471 1472 1473 1474 1476
1406 1404 1402 1401 1400 1399 1398 1397 1397 1397 1396 1394 1391 1389 1389 1393 1398 1405 1411 1417 1422 1426 1430 1432 1435 1438 1442 1446 1449 1452 1455 1458 1462 1464 1466 1468 1470 1471 1472 1472 1473 1473 1474
1394 1392 1391 1390 1390 1390 1389 1389 1390 1389 1388 1387 1385 1384 1383 1386 1392 1400 1408 1414 1420 1424 1428 1430 1434 1439 1443 1446 1449 1452 1456 1459 1462 1464 1466 1468 1470 1471 1472 1473 1474 1475 1476
1382 1381 1380 1380 1379 1380 1380 1381 1382 1382 1381 1381 1380 1379 1379 1381 1387 1395 1403 1410 1417 1421 1425 1430 1434 1439 1443 1446 1449 1453 1457 1460 1462 1464 1466 1468 1470 1472 1474 1476 1477 1478 1479
1370 1369 1369 1369 1370 1370 1371 1373 1374 1375 1376 1376 1375 1374 1375 1377 1384 1392 1399 1407 1414 1419 1424 1429 1435 1439 1443 1447 1450 1453 1456 1458 1461 1464 1466 1468 1471 1473 1475 1476 1477 1478 1479
1358 1358 1358 1359 1360 1362 1363 1365 1367 1369 1369 1370 1370 1371 1372 1375 1381 1390 1399 1406 1413 1418 1424 1429 1434 1439 1442 1446 1449 1452 1455 1458 1461 1463 1466 1468 1471 1473 1475 1477 1478 1479 1480
1346 1347 1349 1350 1352 1354 1356 1359 1361 1362 1363 1364 1365 1367 1369 1372 1379 1388 1397 1405 1412 1418 1424 1429 1433 1437 1441 1445 1448 1451 1454 1457 1460 1463 1466 1468 1471 1473 1475 1477 1478 1479 1480
1336 1338 1340 1342 1344 1347 1350 1352 1355 1357 1358 1359 1360 1363 1366 1371 1378 1387 1396 1404 1412 1418 1423 1428 1432 1436 1440 1444 1447 1450 1453 1456 1460 1463 1465 1468 1470 1473 1475 1477 1478 1479 1480
1328 1330 1332 1335 1338 1341 1345 1347 1350 1352 1353 1354 1356 1359 1363 1370 1378 1387 1395 1403 1410 1416 1422 1426 1431 1435 1439 1443 1446 1450 1453 1456 1459 1462 1465 1468 1470 1472 1474 1476 1478 1478 1480
1323 1325 1327 1330 1333 1337 1340 1343 1345 1348 1349 1351 1353 1356 1361 1367 1375 1384 1393 1402 1409 1415 1420 1425 1429 1434 1438 1442 1446 1449 1452 1455 1458 1462 1464 1467 1470 1472 1474 1476 1477 1478 1479
1320 1322 1325 1328 1331 1334 1336 1339 1341 1344 1346 1348 1351 1354 1359 1366 1374 1383 1391 1400 1407 1413 1418 1423 1428 1432 1437 1441 1444 1448 1451 1455 1458 1461 1464 1466 1469 1471 1473 1475 1476 1478 1479
1320 1322 1324 1327 1329 1332 1334 1336 1338 1341 1343 1345 1348 1352 1359 1367 1376 1383 1391 1399 1406 1412 1417 1422 1426 1431 1435 1439 1442 1446 1450 1453 1456 1460 1463 1465 1468 1470 1472 1473 1475 1476 1477
1321 1323 1325 1327 1329 1330 1332 1334 1335 1337 1340 1342 1346 1351 1358 1367 1376 1384 1392 1399 1405 1410 1415 1420 1424 1429 1433 1437 1441 1444 1448 1451 1455 1458 1461 1464 1466 1468 1470 1472 1473 1474 1475
1323 1324 1326 1327 1328 1329 1330 1331 1332 1334 1337 1340 1345 1351 1359 1368 1376 1384 1391 1398 1404 1409 1414 1418 1422 1427 1431 1435 1439 1442 1446 1449 1453 1456 1459 1462 1464 1466 1468 1470 1471 1472 1473
1326 1326 1327 1328 1328 1328 1328 1329 1330 1332 1335 1340 1345 1353 1361 1369 1377 1384 1391 1397 1403 1407 1412 1416 1421 1425 1429 1433 1437 1440 1443 1447 1450 1454 1456 1459 1462 1464 1465 1467 1468 1468 1469
1328 1328 1328 1328 1327 1327 1327 1328 1330 1333 1337 1342 1348 1356 1363 1370 1377 1384 1390 1396 1401 1405 1410 1414 1419 1423 1427 1431 1435 1438 1441 1444 1448 1451 1454 1456 1458 1460 1462 1463 1464 1464 1464